Wind_Speed
8 7 8 8 7 5 4 3 3 3 4 3 3 3 3 4 6 7 7 7 7 7 7 7 7 7 7 7 7 7 7 6 5 5 5 5 5 5 5 7 6 7 7
8 8 7 6 5 4 3 1 1 2 3 3 3 2 3 4 6 7 7 7 7 7 7 7 7 7 6 6 6 6 6 5 5 6 6 5 5 5 5 6 7 7 8
8 7 5 5 4 3 2 1 1 2 3 3 3 3 3 3 6 6 7 6 6 6 6 6 6 6 6 5 5 5 5 6 6 7 7 7 6 6 6 6 6 6 8
8 7 5 4 4 3 2 2 3 3 4 4 3 4 4 4 5 5 7 7 6 6 6 7 6 6 5 5 5 6 6 7 6 6 7 7 8 8 7 7 6 6 6
8 7 6 5 4 4 3 3 4 5 5 4 4 4 5 5 5 6 7 7 7 7 7 6 6 6 6 6 6 6 7 7 6 7 7 8 8 8 8 8 7 7 7
9 8 7 5 5 5 4 4 4 5 6 6 5 5 5 5 5 6 7 7 7 7 7 7 6 6 6 7 7 7 7 7 7 7 6 7 9 9 9 8 8 9 8
10 10 8 7 7 6 5 5 5 5 6 6 6 5 5 5 6 7 8 8 8 8 8 7 7 7 7 7 7 7 7 8 7 7 7 8 8 9 9 9 9 9 9
10 9 8 8 8 8 7 7 6 6 6 6 6 6 6 6 7 8 8 8 8 9 9 8 8 8 8 7 7 7 8 8 8 8 8 8 8 8 8 9 9 10 11
10 10 9 9 9 9 9 8 8 7 7 7 7 7 7 8 8 9 9 9 8 9 10 10 10 9 9 8 8 8 8 8 9 8 8 8 8 8 8 9 9 9 10
12 11 11 11 10 10 10 9 9 8 8 8 8 8 8 8 9 9 9 10 10 10 10 10 10 10 10 10 10 9 9 9 9 9 9 9 8 8 8 9 9 10 10
12 12 12 11 11 11 11 11 10 10 10 10 10 9 9 9 9 10 10 10 10 10 10 10 10 10 11 11 11 11 10 10 10 10 10 10 10 9 9 9 9 9 10
12 12 13 12 12 12 12 12 12 11 11 11 11 10 10 10 10 10 10 10 10 10 10 10 11 11 12 12 12 12 12 12 12 12 12 12 11 11 10 10 11 11 11
12 12 12 13 12 12 12 12 12 12 12 12 12 12 12 11 10 10 10 10 10 11 11 11 11 11 12 13 13 13 13 13 13 13 13 13 13 13 13 13 12 13 13
13 13 12 12 12 12 12 12 12 13 13 13 12 13 13 12 12 12 11 12 12 13 13 14 14 14 14 14 13 14 14 14 15 15 15 15 14 14 15 15 15 15 15
14 13 13 13 13 14 13 13 13 13 13 13 14 14 14 14 14 14 13 14 14 14 14 15 15 15 16 16 16 16 16 16 16 16 16 16 15 16 16 16 16 16 16
15 15 14 14 14 15 15 14 15 14 14 14 15 15 16 16 16 15 15 15 15 15 15 15 16 16 16 17 17 18 18 18 18 18 18 17 17 16 16 16 16 17 17
16 16 16 15 15 15 16 17 17 17 17 16 16 16 17 17 17 16 16 16 16 16 16 16 16 16 16 17 17 18 19 19 19 20 19 19 19 18 18 18 17 18 18
17 17 17 17 16 17 17 17 18 18 17 18 18 18 18 18 18 18 18 18 17 17 17 17 17 17 17 17 17 18 18 19 19 19 20 20 20 19 19 18 18 19 19
18 19 18 18 18 17 18 18 18 18 19 18 19 19 19 19 19 18 19 19 19 18 18 18 18 18 19 19 19 19 19 19 19 20 20 20 21 21 21 21 21 21 21
19 19 19 18 18 18 18 18 18 19 19 19 20 19 19 19 18 19 19 19 19 19 20 20 19 20 20 20 20 20 21 21 20 20 20 20 21 21 22 22 22 22 22
19 18 19 19 19 20 20 20 20 20 20 20 21 21 20 20 19 19 20 20 21 21 21 20 20 20 20 20 20 20 20 21 21 22 22 21 22 22 22 23 23 23 23
20 20 20 20 21 21 21 21 21 21 21 21 21 21 22 22 21 21 21 21 21 22 22 22 21 21 20 21 21 21 21 21 22 23 23 23 23 23 23 23 23 23 23
21 20 20 20 20 22 22 22 22 22 22 21 22 22 22 23 22 22 22 22 22 23 22 23 23 22 21 21 21 21 22 22 22 22 23 23 24 24 24 23 24 24 24
21 21 20 21 21 21 22 23 23 23 22 22 22 22 22 23 23 23 23 23 23 24 24 23 23 22 22 22 22 22 23 22 23 24 24 24 24 24 25 24 24 25 25
21 21 22 22 22 22 23 23 23 22 22 22 22 22 22 22 23 23 23 23 23 23 23 23 23 23 23 23 22 22 23 24 24 24 25 25 25 25 25 25 25 26 26
21 22 22 23 23 23 23 23 24 23 23 23 23 23 23 23 23 23 23 23 23 23 23 23 23 24 24 23 23 23 24 25 25 25 26 25 25 26 26 26 26 26 26
Wind_Direction
317 312 312 308 305 309 310 298 256 239 234 226 239 243 227 207 200 192 192 194 199 208 213 218 214 216 222 230 236 242 241 235 240 245 249 253 256 256 264 257 253 249 245
323 317 310 307 306 311 322 316 226 213 215 211 228 244 226 205 194 190 191 194 201 206 212 213 211 212 220 228 228 232 232 234 243 244 247 248 248 250 257 263 261 252 247
325 316 310 311 307 302 306 258 251 219 212 214 225 229 219 206 188 194 197 195 201 211 210 211 205 211 220 227 231 234 240 244 247 247 248 246 244 249 257 265 270 258 246
321 319 314 313 313 298 286 258 251 230 222 217 220 222 220 207 216 202 205 204 207 212 212 215 208 211 225 244 238 237 245 252 254 252 248 244 244 248 253 257 257 252 242
309 313 310 305 304 296 282 268 246 232 231 227 225 225 227 225 225 215 211 215 216 220 222 220 221 221 239 243 242 245 250 253 254 251 246 246 247 249 252 254 249 242 237
302 301 295 285 279 286 283 274 259 245 241 237 231 230 237 232 226 224 220 223 226 227 227 230 230 232 238 244 249 252 253 252 250 251 251 253 254 251 251 250 245 239 238
298 296 285 279 273 273 274 278 269 251 242 239 237 240 242 241 240 231 228 233 236 234 233 238 238 238 241 248 256 255 254 251 249 250 252 256 253 250 246 245 243 242 242
296 292 283 274 271 271 271 275 271 261 251 245 245 246 245 244 245 239 235 237 241 242 240 241 240 243 247 251 257 256 258 253 251 251 253 256 254 248 245 247 247 244 245
291 285 283 273 267 266 266 267 266 262 258 254 252 254 252 247 243 243 243 242 243 247 248 244 239 244 246 251 255 255 257 254 252 249 253 255 254 251 246 247 248 247 249
288 284 278 274 269 265 263 260 260 262 261 262 260 258 255 251 250 249 247 245 244 248 250 246 243 245 248 250 252 255 256 255 253 251 250 252 251 253 247 249 252 256 254
284 281 276 272 270 268 261 255 258 258 255 258 261 261 260 254 254 254 251 250 250 248 246 246 248 249 250 251 252 256 259 258 255 252 252 252 250 251 251 250 248 254 253
276 275 271 272 269 266 263 255 255 256 253 255 259 262 261 256 255 250 249 250 251 250 248 250 250 252 253 253 255 257 261 261 259 257 256 257 255 253 252 253 252 255 254
276 273 270 266 267 266 264 256 252 255 254 255 257 261 259 255 252 249 251 252 254 254 253 256 258 258 256 256 257 257 258 257 257 257 259 259 257 256 253 254 254 254 255
274 273 271 266 262 262 260 257 254 254 257 257 257 259 258 256 254 251 253 254 256 259 257 257 258 259 260 261 263 262 260 258 258 257 258 260 258 256 254 253 254 256 258
274 271 269 265 262 261 260 257 257 258 258 259 257 257 258 258 259 256 255 255 257 259 257 257 258 258 259 260 264 266 265 262 260 259 259 260 259 256 254 254 255 258 261
274 275 271 264 262 261 259 259 259 262 261 262 260 257 256 257 259 259 257 257 259 260 261 262 263 264 264 264 265 266 264 260 261 260 260 261 261 260 259 259 260 261 262
273 273 272 265 262 260 259 260 260 263 263 261 261 259 257 256 257 258 258 258 259 259 260 263 264 265 267 266 266 263 261 261 262 261 260 259 258 259 259 260 261 262 263
275 271 270 265 261 260 261 261 260 262 262 261 261 260 259 258 259 260 260 259 259 258 259 262 265 267 269 268 266 263 262 263 263 262 261 258 258 258 259 260 261 262 262
276 272 269 266 262 262 262 263 262 262 261 260 258 259 258 258 258 259 259 260 260 259 260 263 265 268 270 269 267 266 267 264 262 261 260 260 259 258 258 261 263 264 263
275 272 269 267 264 262 262 263 262 261 260 259 258 259 260 259 259 258 258 259 260 261 261 263 265 267 269 268 267 268 266 264 261 261 261 261 261 261 262 262 264 264 264
273 272 269 267 265 263 263 263 263 262 262 260 261 259 261 262 261 259 258 259 260 261 261 262 264 265 267 268 267 267 266 263 262 262 262 262 261 263 265 264 263 262 263
271 271 270 268 266 265 264 263 263 263 262 262 262 260 260 261 263 261 259 259 260 260 260 261 263 263 264 267 267 267 266 264 263 263 263 262 261 263 266 264 263 262 262
268 268 268 269 267 266 266 264 262 261 262 263 263 261 260 260 261 260 260 260 261 260 260 262 261 262 263 265 266 266 265 264 263 263 263 263 263 264 265 265 264 263 263
268 269 269 270 269 267 266 265 263 262 262 263 264 264 264 263 261 261 262 262 262 261 261 261 263 264 265 266 267 266 264 262 262 263 263 263 264 264 264 265 265 265 264
266 268 269 269 268 267 266 265 264 263 262 262 263 264 265 265 263 263 262 261 261 261 261 261 263 264 264 265 266 266 264 263 262 263 263 264 263 264 265 266 267 267 266
266 268 268 267 266 266 266 265 264 263 263 263 263 264 265 265 265 263 261 260 259 259 261 262 263 265 265 265 265 265 265 266 265 264 265 266 265 266 266 266 267 267 267
Height
5864 5862 5860 5859 5858 5856 5854 5853 5853 5855 5857 5858 5859 5859 5859 5860 5861 5862 5863 5864 5865 5867 5867 5868 5869 5870 5871 5871 5872 5872 5872 5872 5872 5872 5873 5873 5872 5872 5872 5872 5872 5872 5872
5862 5860 5858 5857 5856 5855 5854 5854 5854 5855 5857 5858 5859 5859 5859 5860 5860 5861 5862 5864 5865 5866 5866 5867 5868 5869 5869 5870 5870 5870 5870 5871 5871 5871 5871 5871 5871 5871 5871 5871 5870 5870 5871
5861 5859 5857 5856 5856 5856 5855 5855 5855 5856 5857 5858 5858 5859 5859 5859 5860 5861 5862 5863 5864 5864 5865 5865 5866 5867 5868 5868 5869 5869 5869 5869 5869 5869 5870 5870 5870 5870 5870 5869 5869 5869 5869
5860 5858 5857 5856 5856 5856 5856 5856 5856 5857 5857 5857 5858 5858 5859 5859 5859 5860 5861 5862 5863 5863 5864 5865 5865 5866 5867 5867 5867 5868 5868 5868 5868 5868 5868 5868 5868 5868 5868 5868 5867 5867 5867
5859 5858 5857 5856 5856 5856 5855 5855 5855 5856 5856 5857 5857 5858 5858 5858 5859 5859 5860 5861 5862 5862 5863 5864 5864 5865 5865 5866 5866 5866 5866 5866 5866 5866 5866 5866 5866 5866 5866 5866 5866 5866 5866
5857 5856 5856 5855 5855 5855 5855 5855 5854 5855 5855 5855 5856 5857 5857 5857 5858 5859 5859 5860 5860 5861 5862 5862 5862 5863 5863 5864 5864 5864 5864 5864 5864 5864 5863 5863 5863 5863 5864 5864 5864 5864 5864
5854 5854 5854 5854 5853 5853 5853 5853 5853 5854 5854 5854 5855 5855 5856 5856 5857 5857 5858 5859 5859 5859 5860 5860 5860 5861 5861 5862 5862 5862 5861 5861 5861 5861 5861 5861 5861 5861 5861 5861 5861 5862 5862
5852 5852 5852 5851 5851 5851 5851 5852 5852 5852 5852 5853 5853 5854 5854 5855 5855 5856 5856 5857 5857 5857 5857 5858 5858 5859 5859 5859 5859 5859 5859 5859 5859 5859 5859 5859 5859 5859 5859 5859 5859 5859 5860
5849 5849 5849 5849 5849 5849 5849 5849 5849 5850 5850 5851 5852 5852 5853 5853 5853 5854 5854 5855 5855 5855 5855 5855 5856 5856 5856 5857 5857 5857 5857 5857 5857 5857 5857 5857 5856 5856 5856 5856 5857 5857 5857
5845 5846 5846 5846 5846 5846 5847 5847 5847 5847 5848 5849 5849 5850 5851 5851 5852 5852 5853 5853 5853 5853 5853 5853 5853 5854 5854 5854 5854 5854 5854 5854 5854 5854 5854 5854 5854 5854 5854 5854 5854 5854 5854
5842 5842 5842 5842 5842 5843 5843 5844 5844 5845 5845 5846 5846 5847 5847 5848 5849 5850 5850 5850 5850 5850 5850 5851 5851 5851 5851 5851 5851 5852 5851 5851 5851 5851 5851 5851 5851 5851 5851 5851 5851 5851 5852
5839 5839 5839 5839 5839 5839 5840 5841 5841 5842 5842 5843 5843 5844 5844 5845 5846 5846 5847 5847 5848 5848 5848 5848 5848 5848 5848 5848 5848 5848 5849 5849 5848 5848 5848 5848 5849 5849 5849 5849 5848 5848 5849
5835 5835 5835 5835 5835 5836 5836 5837 5838 5838 5839 5840 5840 5841 5841 5842 5842 5843 5843 5844 5844 5845 5845 5845 5845 5845 5845 5845 5845 5845 5845 5845 5845 5845 5845 5845 5845 5845 5845 5846 5845 5845 5846
5831 5831 5831 5831 5832 5832 5833 5833 5834 5835 5836 5836 5837 5837 5838 5838 5839 5839 5840 5840 5841 5841 5842 5842 5842 5842 5841 5841 5841 5841 5841 5841 5842 5841 5841 5842 5842 5842 5842 5842 5842 5842 5842
5827 5827 5827 5827 5828 5828 5828 5829 5829 5830 5831 5832 5833 5833 5834 5834 5835 5835 5836 5836 5837 5837 5838 5837 5837 5837 5837 5837 5837 5837 5837 5837 5837 5837 5837 5837 5838 5838 5838 5838 5838 5838 5838
5822 5822 5822 5823 5823 5823 5824 5824 5825 5826 5827 5827 5828 5829 5830 5830 5831 5831 5831 5832 5832 5833 5833 5833 5833 5833 5832 5832 5832 5832 5832 5832 5832 5832 5833 5833 5833 5833 5833 5834 5834 5834 5834
5817 5817 5817 5818 5818 5818 5819 5820 5821 5822 5822 5823 5823 5824 5825 5825 5826 5826 5827 5827 5828 5828 5828 5828 5828 5828 5827 5827 5827 5826 5826 5827 5827 5827 5827 5828 5828 5828 5828 5829 5829 5829 5829
5812 5812 5812 5813 5813 5814 5815 5815 5815 5816 5816 5817 5818 5819 5819 5820 5821 5821 5821 5822 5822 5822 5823 5823 5823 5822 5822 5822 5822 5822 5821 5821 5821 5822 5822 5822 5823 5823 5823 5823 5823 5824 5824
5807 5807 5807 5807 5808 5809 5810 5810 5810 5811 5811 5812 5813 5813 5814 5814 5815 5815 5816 5816 5816 5817 5817 5817 5817 5817 5817 5816 5816 5816 5816 5816 5816 5816 5816 5816 5817 5817 5817 5818 5818 5818 5818
5801 5801 5801 5802 5802 5803 5804 5804 5805 5805 5806 5806 5807 5807 5807 5809 5809 5809 5810 5810 5811 5811 5811 5811 5811 5811 5811 5811 5810 5810 5810 5810 5810 5810 5810 5810 5810 5811 5811 5811 5812 5812 5812
5796 5796 5796 5796 5797 5797 5798 5799 5799 5800 5800 5801 5801 5801 5802 5803 5803 5803 5804 5804 5805 5805 5805 5805 5805 5805 5805 5804 5804 5804 5804 5803 5803 5803 5804 5804 5804 5804 5805 5805 5805 5805 5806
5790 5790 5790 5790 5790 5791 5792 5792 5793 5794 5794 5795 5795 5795 5796 5796 5797 5797 5797 5797 5798 5798 5798 5798 5799 5799 5799 5798 5798 5797 5797 5797 5797 5797 5797 5797 5798 5798 5798 5798 5798 5799 5799
5783 5783 5784 5784 5784 5785 5785 5786 5787 5787 5788 5788 5788 5789 5789 5790 5790 5790 5790 5790 5791 5791 5791 5792 5792 5792 5792 5792 5791 5791 5790 5790 5790 5790 5790 5790 5791 5791 5791 5791 5792 5792 5792
5777 5777 5778 5778 5778 5778 5779 5779 5780 5780 5781 5781 5782 5782 5782 5782 5783 5783 5783 5784 5784 5784 5784 5784 5785 5785 5785 5785 5785 5784 5784 5784 5784 5784 5784 5784 5784 5784 5784 5785 5785 5785 5785
5771 5771 5771 5771 5771 5772 5772 5772 5773 5773 5774 5774 5775 5775 5775 5775 5776 5776 5777 5777 5777 5777 5777 5777 5778 5778 5778 5778 5777 5777 5777 5777 5777 5777 5776 5777 5777 5776 5777 5777 5777 5777 5777
5764 5764 5764 5764 5765 5765 5765 5765 5766 5767 5767 5768 5768 5768 5769 5769 5768 5768 5769 5769 5770 5770 5770 5771 5771 5771 5770 5770 5770 5770 5770 5770 5769 5769 5769 5769 5769 5769 5769 5769 5769 5769 5769